Torna al catalogo

STARLINK-31025

AttivoComunicazioniVLEO
NORAD 58634·PAYLOAD·🇺🇸 United States

Lanciato Dec 23, 2023 da Cape Canaveral Space Force Station

Loading…

Prossimi Passaggi (prossime 24 ore)

TLE

AggiornatoSource: CelesTrak SupGP

Epoca: Sep 15, 2026, 02:45 UTC

1 58634C 23203S   26258.11506944 -.00002579  00000+0 -93504-4 0  2586
2 58634  43.0019  76.9306 0001598 268.9939 145.6567 15.27548485    19

Traccia STARLINK-31025 in tempo reale con AllMySat

Download on the App Store